This demonstration page uses our WeatherBlox Daily Observations layout. Learn more.

41.55636, -103.73856

Hourly Observations for August 2, 2015

Temp ( °F °C ) Dew Point ( °F °C ) Humidity (%) Winds ( mph kmh ) Pressure ( in mb ) Visibility ( mi km ) Precip ( " mm )
12:53 am 00:53 Clear 71 21.7 55 12.8 57 57 SE 9 15 29.85 1011 10 16.0934 0 0
1:53 am 01:53 Clear 69 20.6 55 12.8 61 61 Calm 29.85 1011 10 16.0934 0 0
2:53 am 02:53 Clear 64 17.8 57 13.9 78 78 NNE 7 11 29.84 1011 10 16.0934 0 0
3:53 am 03:53 Clear 62 16.7 56 13.3 80 80 N 3 6 29.83 1010 10 16.0934 0 0
4:53 am 04:53 Clear 59 15 55 12.8 87 87 Calm 29.85 1011 10 16.0934 0 0
5:53 am 05:53 Sunny 60 15.6 56 13.3 86 86 Calm 29.85 1011 10 16.0934 0 0
6:53 am 06:53 Sunny 64 17.8 58 14.4 81 81 Calm 29.88 1012 10 16.0934 0 0
7:53 am 07:53 Sunny 69 20.6 58 14.4 68 68 Calm 29.88 1012 10 16.0934 0 0
8:53 am 08:53 Sunny 73 22.8 58 14.4 59 59 Calm 29.88 1012 10 16.0934 0 0
9:53 am 09:53 Sunny 80 26.7 58 14.4 47 47 WNW 5 7 29.88 1012 10 16.0934 0 0
10:53 am 10:53 Sunny 82 27.8 61 16.1 49 49 VRB 3 6 29.88 1012 10 16.0934 0 0
11:53 am 11:53 Sunny 87 30.6 62 16.7 43 43 NW 5 7 29.84 1011 10 16.0934 0 0
12:53 pm 12:53 Sunny 92 33.3 58 14.4 32 32 Calm 29.82 1010 10 16.0934 0 0
1:53 pm 13:53 Sunny 91 32.8 53 11.7 27 27 ENE 5 7 29.82 1010 10 16.0934 0 0
2:53 pm 14:53 Sunny 85 29.4 51 10.6 31 31 NNE 12 19 29.86 1011 10 16.0934 0 0
3:53 pm 15:53 Sunny 91 32.8 51 10.6 26 26 ENE 8 13 29.81 1010 10 16.0934 0 0
4:53 pm 16:53 Sunny 91 32.8 51 10.6 26 26 ESE 12 19 29.82 1010 10 16.0934 0 0
5:53 pm 17:53 Sunny 89 31.7 51 10.6 27 27 S 12 19 29.82 1010 10 16.0934 0 0
6:53 pm 18:53 Sunny 86 30 52 11.1 31 31 SE 5 7 29.81 1010 10 16.0934 0 0
7:53 pm 19:53 Sunny 80 26.7 59 15 49 49 ESE 5 7 29.82 1010 10 16.0934 0 0
8:53 pm 20:53 Clear 72 22.2 61 16.1 68 68 undefined N/A 29.84 1010 10 16.0934 0 0
9:53 pm 21:53 Clear 75 23.9 57 13.9 54 54 ESE 8 13 29.84 1011 10 16.0934 0 0
10:53 pm 22:53 Clear 69 20.6 58 14.4 68 68 E 8 13 29.85 1011 10 16.0934 0 0
11:53 pm 23:53 Clear 66 18.9 58 14.4 75 75 ENE 8 13 29.85 1011 10 16.0934 0 0

Powered by AerisWeather